Wetbulb
58.18 57.47 57.64 57.61 57.06 56.77 57.05 56.92 57.02 57.19 57.68 58.17 58.24 57.82 57.87 57.99 57.88 57.85 57.59 57.71 57.86 58.10 57.97 56.76 56.28 55.93 53.24 45.71 44.53 53.85 55.47 55.42 54.98 55.92 53.78 53.84 51.51 50.47 45.83 45.69 46.59 43.40 44.06 45.89 46.33 46.35 45.21
58.51 57.51 56.97 57.37 57.15 56.88 56.88 56.76 56.57 57.05 57.14 57.58 57.71 58.18 58.11 58.06 58.12 58.13 57.81 58.09 57.67 57.76 57.90 56.76 56.56 56.64 50.59 40.11 53.34 53.92 52.79 53.49 53.91 54.18 55.27 55.18 52.43 52.14 47.27 45.53 44.28 45.01 44.89 44.70 45.91 45.47 45.80
58.62 57.95 57.32 57.11 57.31 56.95 56.44 56.33 56.44 56.70 56.69 57.12 57.24 57.22 57.48 57.62 57.78 57.66 57.40 56.84 56.68 56.86 56.10 56.30 57.24 53.73 47.11 44.83 54.02 54.71 53.31 52.69 53.86 56.33 51.73 51.61 51.88 49.83 47.77 43.59 46.87 45.36 41.45 43.53 43.81 44.56 43.83
59.19 59.10 58.90 58.56 57.54 56.92 56.93 56.39 56.34 56.43 56.45 56.38 56.58 56.48 56.54 56.93 56.79 57.11 57.26 56.87 56.96 57.06 57.33 57.25 56.68 52.34 43.96 54.10 54.37 52.84 54.66 53.12 54.53 54.27 52.70 53.35 52.56 49.10 47.00 46.62 44.76 42.49 41.72 36.61 42.28 44.06 44.18
58.98 58.88 58.80 58.72 58.37 57.81 56.90 56.47 56.38 56.29 56.20 56.01 55.85 56.02 56.17 56.12 56.64 56.76 57.38 56.58 56.73 57.07 56.65 56.29 52.87 50.42 43.31 56.06 49.58 52.21 52.74 51.14 51.52 52.10 51.92 52.75 51.21 45.72 45.20 40.56 37.06 38.30 33.16 36.71 38.73 43.98 43.52
58.66 58.69 58.72 58.47 58.17 57.30 56.39 56.14 55.82 56.10 56.01 55.79 55.48 55.56 56.09 56.28 56.46 55.98 55.79 57.09 56.36 56.14 54.29 53.58 51.67 45.53 47.59 45.15 50.27 51.64 52.79 52.60 50.59 50.64 49.48 48.31 45.76 41.19 40.81 37.69 29.69 32.52 34.33 36.83 36.44 40.41 41.35
58.28 58.19 58.17 58.24 58.05 57.47 56.55 56.24 55.81 55.76 55.65 55.70 55.39 54.86 55.44 55.73 55.16 55.04 53.42 53.36 48.09 45.87 48.07 43.71 44.42 44.55 46.09 49.88 52.60 49.73 52.06 50.88 50.48 47.54 39.97 45.23 39.90 34.11 36.64 38.08 38.91 38.55 37.36 36.00 38.29 41.52 37.63
58.07 57.92 57.74 57.84 57.77 57.58 56.79 56.39 55.81 55.69 55.52 55.29 55.19 54.75 54.42 54.72 54.61 54.97 53.91 47.85 46.23 48.75 41.52 47.36 46.88 46.76 48.73 49.51 45.49 47.13 51.13 46.11 45.45 39.04 42.66 39.80 33.40 39.33 41.81 41.13 39.88 39.05 35.67 34.73 37.45 40.72 37.18
57.93 57.73 57.46 57.59 57.26 57.21 56.83 56.48 56.12 55.52 55.25 54.93 54.73 54.49 53.90 54.10 54.37 53.70 49.99 48.06 52.79 51.51 43.74 44.15 46.59 44.43 45.41 48.31 43.64 43.97 47.67 46.23 42.81 40.64 39.82 35.86 37.30 41.85 41.80 39.48 39.23 36.47 34.54 34.73 34.50 38.66 38.50
57.91 57.77 57.45 57.28 57.25 57.02 56.59 56.84 56.47 55.45 54.80 54.53 54.22 54.22 53.57 53.97 51.45 51.20 48.77 51.82 53.09 52.41 39.20 37.46 41.91 44.45 47.59 48.59 42.68 48.48 48.79 45.68 42.30 38.09 39.57 37.25 41.00 40.52 39.26 37.42 37.86 34.42 38.56 38.47 38.28 34.22 28.55
57.40 57.91 57.29 57.51 57.53 57.36 57.15 56.63 56.13 55.47 54.63 54.16 53.83 53.25 52.75 53.10 50.88 49.44 49.66 52.22 52.14 48.12 27.75 39.72 41.53 49.49 48.54 44.08 44.74 44.72 48.94 46.24 39.73 40.16 39.25 33.83 37.46 37.90 36.50 36.55 39.15 35.91 39.69 37.30 36.67 32.94 28.95
57.27 57.92 58.15 58.04 57.58 57.45 57.33 57.07 56.17 56.01 54.71 53.80 53.09 52.30 52.36 52.44 52.82 50.84 52.35 51.82 48.82 38.09 22.48 32.10 42.69 42.30 42.62 43.38 43.86 46.23 45.35 45.98 44.59 40.26 39.15 37.10 41.07 39.31 38.35 40.76 39.89 40.29 37.53 36.49 34.43 32.56 23.36
57.19 57.82 57.94 57.98 57.92 57.55 57.29 57.08 56.87 56.01 54.16 53.33 52.31 52.32 52.31 52.07 48.30 52.07 51.64 48.19 37.18 28.63 36.68 35.30 37.60 41.69 40.49 39.61 40.94 42.63 40.84 38.43 35.00 30.82 30.91 36.56 36.38 38.93 41.51 37.53 39.43 37.91 32.62 26.84 25.08 22.96 23.07
57.05 57.71 57.68 57.84 57.69 57.51 57.28 56.98 56.82 55.58 53.76 52.25 50.66 51.59 52.34 51.31 52.37 51.87 48.82 41.97 27.93 33.14 34.23 39.08 39.99 40.38 37.18 39.25 38.88 40.04 38.60 35.51 38.91 37.30 33.55 30.56 24.23 36.58 40.16 37.87 34.58 35.13 32.35 25.49 21.43 21.36 22.54
57.48 57.45 57.34 57.50 57.25 57.10 57.14 56.96 56.67 55.78 53.46 51.30 50.42 52.33 52.20 51.32 52.46 50.30 43.73 33.44 32.13 34.58 38.71 38.15 38.35 36.04 35.37 38.45 37.84 37.86 36.24 36.11 38.08 38.26 31.71 30.85 29.12 38.83 40.76 41.44 39.56 34.72 29.36 34.79 24.79 25.99 22.42
57.15 57.08 57.09 57.28 56.97 56.53 56.63 56.87 56.51 55.81 53.29 50.65 50.33 50.51 48.63 52.16 51.81 47.58 40.32 34.11 34.38 39.74 40.54 39.80 33.81 35.74 32.73 35.02 35.01 35.00 34.54 37.57 38.24 40.12 39.82 34.21 28.40 36.89 39.47 40.90 39.63 36.23 37.95 29.01 28.45 19.57 20.24
56.69 56.72 56.80 56.83 56.28 55.70 55.77 56.51 56.24 55.87 53.72 50.62 50.03 46.34 48.99 52.42 50.23 44.75 36.09 34.45 38.04 41.18 42.57 39.53 36.50 34.89 35.96 34.72 35.87 34.25 35.29 37.63 39.96 39.16 39.83 36.94 33.11 30.93 36.19 34.13 34.52 33.12 30.91 32.96 32.00 28.59 21.35
56.13 56.42 56.64 56.35 55.67 55.29 55.33 55.92 55.94 55.73 53.89 49.39 48.57 44.13 48.95 50.99 44.90 42.62 37.29 39.59 40.58 41.04 43.31 41.91 40.67 38.91 36.61 35.94 34.49 34.76 35.11 38.36 41.52 40.45 36.76 37.89 35.52 27.96 33.11 37.51 39.07 36.36 33.97 33.98 25.14 25.80 28.55
55.22 56.07 56.33 55.99 55.49 55.12 55.12 55.35 55.55 55.53 54.09 48.01 46.28 44.96 49.38 48.05 40.70 36.68 39.27 39.72 41.43 40.36 40.79 41.01 40.05 41.15 40.10 37.01 34.08 37.48 37.73 42.18 42.39 40.31 37.71 38.50 32.98 25.11 26.36 31.64 35.27 33.60 35.86 36.03 34.79 32.49 26.79
56.03 56.13 56.15 55.67 55.12 54.88 54.87 54.91 55.07 55.12 54.54 48.04 46.74 44.12 46.72 46.53 43.77 40.32 37.58 38.52 38.17 42.40 42.02 42.32 41.24 41.49 38.98 37.24 38.49 36.22 37.83 41.36 41.73 41.72 43.45 41.26 34.03 29.81 24.75 27.62 32.58 30.14 34.40 36.00 33.52 25.33 27.32
56.03 55.88 55.82 55.15 54.99 54.93 54.69 54.60 54.73 54.51 53.69 49.10 45.03 40.48 40.83 38.17 39.50 40.24 40.36 40.25 38.71 38.10 41.82 42.21 39.63 39.97 38.83 34.65 35.67 35.31 38.01 38.99 40.74 42.16 39.22 37.99 29.06 27.86 32.06 33.88 33.52 32.19 32.21 32.97 32.11 33.04 27.51
56.06 55.79 55.06 54.91 55.10 55.07 54.63 54.31 54.41 53.89 52.76 49.57 43.05 41.71 40.39 39.62 39.61 38.50 38.20 38.29 39.26 39.37 40.12 39.20 38.26 39.31 39.48 36.17 36.72 34.22 36.32 36.50 36.25 38.96 36.96 38.46 29.85 29.34 28.96 33.50 33.05 29.47 32.76 33.35 33.42 33.59 33.89
55.95 54.97 54.50 54.76 55.08 54.92 54.41 54.13 54.22 53.47 52.56 48.55 46.05 44.79 41.68 38.75 38.44 36.83 37.30 38.25 39.47 40.63 41.61 41.49 40.13 38.14 37.23 38.94 39.83 39.97 39.98 39.64 36.90 37.73 36.41 35.95 32.31 28.04 24.33 30.67 29.91 25.19 31.27 32.69 32.50 33.89 33.88
55.17 54.22 54.01 54.28 54.42 54.62 54.33 54.27 54.26 53.50 51.70 49.80 46.29 45.12 42.30 38.78 38.15 38.93 38.79 39.34 38.97 39.86 38.71 41.25 41.00 38.40 39.52 42.02 41.46 39.78 39.17 39.60 39.19 38.24 38.66 34.62 33.29 30.75 24.58 26.97 17.65 30.76 34.67 34.42 32.31 33.89 35.60
54.60 53.76 53.37 53.23 54.15 54.11 54.17 54.13 54.31 54.13 52.45 50.99 48.59 45.58 43.14 38.99 40.44 39.89 39.18 38.44 38.26 38.83 37.72 39.71 41.91 41.92 43.61 40.00 35.26 32.68 31.57 29.86 31.75 33.58 34.01 36.30 34.71 28.89 24.32 23.77 29.05 31.67 32.23 32.08 29.89 31.07 35.24
54.19 53.30 52.83 52.88 53.50 53.62 53.68 54.03 54.17 54.18 53.13 51.74 49.10 47.09 44.86 40.39 39.26 40.49 38.06 38.37 36.24 36.45 36.52 38.33 41.80 43.14 41.45 38.45 34.71 27.70 27.11 28.79 26.65 28.62 33.12 34.05 34.60 30.01 27.19 22.97 22.37 31.08 34.05 36.57 35.07 26.96 35.49
53.83 53.11 52.66 52.62 52.85 53.52 53.66 53.85 53.83 53.70 53.80 51.53 50.58 48.39 45.76 41.62 42.96 40.32 38.72 38.64 39.34 37.68 36.49 35.95 37.34 37.71 39.42 35.11 31.25 29.20 28.75 31.44 25.69 25.41 26.51 28.67 28.92 27.40 27.26 26.61 29.42 34.84 36.33 35.56 25.23 26.59 35.07
52.87 52.39 52.27 52.09 51.99 53.25 53.75 53.58 53.28 53.26 53.60 52.04 50.27 49.23 45.83 43.54 43.20 43.35 43.20 40.05 40.04 39.31 35.82 37.14 37.06 36.63 35.21 31.41 31.41 32.26 31.04 31.45 27.86 30.69 29.60 28.20 26.21 26.10 28.63 27.61 23.56 35.61 33.90 29.66 35.00 37.38 38.31
52.17 51.54 51.03 50.75 51.52 52.13 52.35 52.77 52.97 53.16 53.44 52.22 48.84 47.38 47.34 44.76 43.45 45.96 46.29 46.48 45.00 43.92 40.94 40.07 37.94 37.15 38.01 34.04 35.32 32.56 29.78 30.22 30.41 26.70 33.05 27.53 33.06 30.17 31.17 30.42 37.23 37.40 37.41 39.15 39.43 38.27 38.23
MSLP
1019.99 1019.61 1019.22 1018.72 1018.23 1017.81 1017.32 1017.02 1016.78 1016.21 1015.50 1014.87 1014.35 1014.10 1013.29 1013.28 1013.16 1012.81 1012.48 1012.25 1012.26 1012.12 1012.25 1012.35 1012.34 1012.22 1012.48 1012.56 1012.40 1011.66 1011.43 1011.52 1011.45 1010.91 1010.36 1010.12 1010.41 1010.49 1010.71 1011.21 1011.71 1012.28 1013.11 1013.46 1013.68 1013.55 1013.31
1020.19 1019.89 1019.51 1018.92 1018.48 1018.02 1017.56 1017.26 1017.07 1016.61 1016.07 1015.50 1014.86 1014.62 1014.02 1013.37 1013.40 1013.37 1013.22 1012.91 1013.00 1013.02 1012.92 1012.98 1012.87 1012.99 1012.70 1012.39 1012.15 1011.53 1011.36 1011.15 1010.82 1010.32 1009.95 1009.97 1009.89 1009.92 1010.64 1011.33 1011.74 1012.71 1013.31 1013.84 1014.11 1014.21 1014.05
1020.39 1020.16 1019.72 1019.22 1018.65 1018.25 1017.76 1017.41 1017.26 1017.00 1016.47 1016.14 1015.37 1015.00 1014.82 1014.39 1014.25 1014.05 1014.04 1013.88 1013.41 1013.53 1013.45 1013.64 1013.25 1013.34 1012.60 1012.93 1011.95 1011.36 1011.24 1011.15 1010.81 1010.19 1010.48 1010.32 1010.11 1010.21 1011.12 1012.28 1012.66 1013.08 1013.63 1013.98 1014.36 1014.36 1014.49
1020.66 1020.31 1019.85 1019.39 1018.94 1018.42 1017.96 1017.61 1017.43 1017.19 1016.84 1016.59 1016.07 1015.20 1015.31 1014.82 1014.49 1014.16 1013.88 1013.77 1013.79 1013.75 1013.37 1013.17 1012.95 1012.71 1012.52 1012.43 1012.04 1011.31 1011.12 1010.98 1010.92 1010.81 1010.72 1010.46 1010.63 1011.16 1011.79 1012.47 1012.80 1012.87 1013.22 1013.93 1014.58 1014.46 1014.71
1020.96 1020.58 1020.09 1019.58 1019.10 1018.51 1018.13 1017.77 1017.55 1017.31 1017.15 1016.76 1016.76 1015.78 1015.70 1015.28 1015.02 1014.64 1014.08 1013.73 1013.30 1013.18 1012.96 1012.67 1012.44 1012.02 1012.32 1012.28 1012.31 1011.80 1011.36 1011.38 1011.51 1011.30 1011.03 1011.04 1011.31 1012.19 1012.64 1012.79 1012.97 1013.19 1013.40 1013.85 1014.81 1014.81 1014.72
1021.35 1020.91 1020.46 1019.92 1019.35 1018.79 1018.33 1017.95 1017.61 1017.42 1017.25 1017.06 1016.86 1016.64 1016.04 1015.53 1015.23 1014.74 1014.48 1013.83 1013.04 1012.46 1012.25 1012.30 1011.86 1012.20 1013.00 1013.15 1012.84 1012.32 1011.91 1011.47 1011.53 1011.48 1011.40 1011.53 1012.06 1012.67 1012.99 1013.10 1013.49 1013.21 1013.18 1013.84 1014.58 1015.33 1015.02
1021.67 1021.28 1020.80 1020.33 1019.67 1019.09 1018.56 1018.13 1017.73 1017.47 1017.23 1017.09 1017.05 1016.84 1016.26 1016.44 1016.28 1015.52 1014.77 1013.84 1014.00 1013.77 1012.90 1013.53 1013.66 1013.46 1013.80 1013.58 1012.96 1012.71 1012.36 1011.90 1011.83 1011.80 1012.29 1012.44 1013.32 1014.19 1014.32 1014.09 1013.63 1013.00 1013.31 1014.20 1015.03 1015.64 1015.55
1022.04 1021.60 1021.09 1020.61 1020.03 1019.40 1018.86 1018.32 1017.98 1017.62 1017.30 1017.05 1016.97 1016.79 1016.70 1016.10 1016.17 1015.49 1015.34 1015.22 1016.52 1016.52 1015.29 1014.37 1014.28 1014.27 1014.15 1013.92 1013.46 1013.41 1012.75 1012.60 1012.34 1012.83 1013.16 1013.99 1015.26 1015.60 1015.13 1014.53 1013.97 1013.64 1014.14 1015.02 1015.59 1015.97 1016.01
1022.39 1021.91 1021.41 1020.88 1020.36 1019.80 1019.19 1018.64 1018.12 1017.75 1017.38 1017.08 1016.78 1016.79 1016.33 1016.26 1016.03 1015.83 1015.80 1016.42 1016.56 1016.24 1015.60 1015.13 1014.76 1014.94 1015.02 1014.63 1014.77 1014.54 1013.96 1013.25 1013.20 1013.56 1014.67 1015.17 1016.48 1016.05 1015.54 1015.34 1015.22 1015.69 1015.82 1016.00 1016.39 1016.30 1016.29
1022.66 1022.20 1021.79 1021.26 1020.74 1020.14 1019.55 1018.86 1018.33 1017.83 1017.51 1017.06 1016.80 1016.61 1016.53 1016.03 1016.06 1015.70 1015.89 1016.16 1016.28 1016.07 1016.08 1016.08 1015.11 1015.19 1014.86 1014.59 1014.95 1014.94 1014.53 1014.36 1014.18 1015.03 1015.59 1016.53 1016.92 1016.45 1016.29 1016.58 1016.87 1016.89 1017.07 1017.00 1017.15 1017.21 1017.64
1022.93 1022.39 1021.96 1021.55 1020.95 1020.46 1019.88 1019.20 1018.47 1017.99 1017.51 1017.21 1016.75 1016.64 1016.44 1016.09 1016.07 1016.03 1016.56 1016.20 1016.06 1016.00 1016.54 1016.93 1015.87 1015.14 1014.70 1014.73 1015.14 1014.95 1014.65 1014.33 1014.96 1015.50 1016.10 1017.77 1017.47 1017.10 1017.40 1018.17 1017.66 1017.93 1017.79 1017.90 1018.02 1018.35 1018.83
1023.14 1022.64 1022.18 1021.76 1021.21 1020.64 1020.10 1019.51 1018.80 1017.97 1017.53 1017.17 1016.95 1016.54 1016.29 1015.99 1015.94 1016.64 1016.37 1016.26 1016.43 1016.77 1017.65 1017.22 1016.08 1015.34 1015.02 1014.87 1015.01 1014.94 1014.90 1015.02 1015.75 1016.12 1016.86 1017.86 1018.04 1018.40 1018.59 1018.56 1018.38 1018.42 1018.48 1018.55 1018.78 1019.25 1019.98
1023.21 1022.91 1022.43 1021.97 1021.49 1020.94 1020.29 1019.73 1019.03 1018.15 1017.48 1017.17 1017.14 1016.81 1016.25 1016.23 1016.70 1016.49 1016.22 1015.92 1016.37 1016.94 1018.24 1017.20 1016.40 1015.58 1015.22 1015.38 1015.38 1015.22 1015.20 1015.56 1016.07 1016.53 1017.49 1018.13 1018.73 1019.05 1018.99 1018.81 1018.70 1018.60 1018.79 1019.40 1020.15 1020.41 1020.51
1023.31 1023.03 1022.62 1022.17 1021.55 1021.09 1020.48 1019.92 1019.21 1018.36 1017.61 1017.28 1017.32 1017.04 1016.90 1016.86 1016.89 1016.61 1016.17 1016.16 1016.73 1017.96 1017.54 1017.18 1016.46 1015.83 1015.71 1015.90 1015.89 1015.70 1015.58 1016.19 1016.64 1016.74 1017.47 1018.40 1019.51 1019.47 1019.38 1019.31 1019.33 1019.23 1019.46 1020.15 1020.95 1021.44 1021.26
1023.34 1023.02 1022.68 1022.29 1021.69 1021.19 1020.77 1020.12 1019.44 1018.65 1017.84 1017.49 1017.26 1016.72 1016.58 1017.08 1016.90 1016.62 1016.51 1016.69 1017.95 1017.73 1017.41 1016.84 1016.43 1015.80 1015.97 1016.01 1015.99 1015.82 1016.17 1016.65 1017.28 1017.36 1017.73 1018.01 1019.29 1019.74 1019.72 1019.53 1019.65 1019.62 1019.92 1020.57 1021.33 1021.79 1021.69
1023.48 1023.13 1022.70 1022.38 1021.88 1021.32 1020.83 1020.37 1019.69 1018.94 1018.33 1017.78 1017.65 1016.90 1016.99 1017.09 1017.03 1016.70 1016.85 1017.83 1018.20 1017.95 1017.52 1016.96 1016.33 1016.14 1015.64 1015.92 1015.96 1016.06 1016.48 1017.21 1017.47 1017.75 1017.77 1018.01 1018.97 1019.58 1019.86 1019.89 1019.90 1019.88 1020.29 1020.73 1021.37 1022.04 1021.71
1023.57 1023.15 1022.76 1022.34 1021.90 1021.46 1020.93 1020.44 1019.97 1019.21 1018.71 1018.12 1017.82 1017.27 1017.50 1017.29 1017.12 1017.04 1017.82 1018.31 1018.40 1018.24 1017.91 1017.39 1016.75 1016.33 1015.99 1015.97 1015.99 1016.18 1016.79 1017.61 1017.66 1017.99 1018.08 1018.22 1018.82 1020.11 1020.15 1019.89 1019.58 1020.18 1020.08 1020.41 1020.85 1021.31 1021.47
1023.65 1023.29 1022.81 1022.39 1021.93 1021.46 1021.03 1020.58 1020.07 1019.50 1018.80 1018.45 1017.82 1017.64 1017.75 1017.92 1017.64 1017.38 1018.24 1018.26 1018.36 1018.27 1018.03 1017.56 1017.24 1016.77 1016.35 1016.41 1016.34 1016.54 1016.90 1017.40 1017.80 1018.11 1018.29 1018.78 1018.99 1019.61 1019.53 1019.42 1019.41 1019.62 1019.57 1019.97 1020.66 1020.96 1020.62
1023.79 1023.39 1022.90 1022.49 1022.12 1021.64 1021.12 1020.60 1020.09 1019.63 1019.27 1019.08 1017.91 1017.74 1017.92 1018.05 1017.84 1017.85 1018.16 1018.29 1018.25 1018.21 1017.93 1017.77 1017.39 1017.29 1017.02 1016.75 1016.90 1016.95 1017.40 1018.19 1018.38 1018.50 1018.82 1018.96 1019.27 1019.51 1019.80 1020.10 1019.90 1019.76 1019.48 1019.66 1019.90 1020.32 1020.21
1023.76 1023.44 1023.13 1022.68 1022.23 1021.82 1021.31 1020.82 1020.15 1019.52 1019.22 1019.37 1018.32 1017.87 1017.84 1017.73 1017.72 1017.58 1017.66 1017.74 1018.05 1018.27 1018.10 1018.04 1017.81 1017.60 1017.35 1017.15 1017.22 1017.38 1017.79 1018.53 1018.77 1019.00 1019.32 1019.51 1019.41 1019.58 1019.70 1019.59 1019.49 1019.58 1019.26 1019.30 1019.89 1020.27 1019.22
1023.67 1023.42 1023.19 1022.78 1022.25 1021.97 1021.54 1021.08 1020.47 1019.62 1018.88 1019.02 1018.70 1018.92 1018.81 1018.24 1017.98 1018.10 1017.92 1017.58 1017.66 1017.97 1018.21 1018.10 1017.95 1017.94 1017.61 1017.31 1017.39 1017.55 1017.70 1018.73 1019.14 1019.46 1019.74 1019.90 1020.01 1019.89 1019.79 1019.55 1019.37 1018.96 1018.70 1018.77 1018.80 1018.40 1018.38
1023.39 1023.38 1023.31 1023.16 1022.65 1022.24 1021.80 1021.38 1020.81 1019.94 1018.75 1018.65 1019.51 1019.61 1019.12 1018.58 1018.28 1017.95 1018.16 1018.33 1017.61 1017.53 1017.56 1017.80 1017.89 1017.76 1017.91 1017.97 1017.75 1017.71 1017.86 1018.32 1018.57 1019.60 1019.91 1020.04 1020.34 1020.34 1020.14 1019.32 1019.18 1018.65 1017.79 1017.78 1017.82 1017.57 1016.92
1023.04 1023.10 1023.12 1023.06 1022.77 1022.42 1022.04 1021.68 1021.25 1020.62 1019.53 1019.16 1019.49 1019.64 1019.78 1019.02 1018.25 1017.85 1017.83 1017.84 1018.16 1018.65 1018.01 1017.50 1017.53 1017.74 1017.89 1018.11 1018.24 1018.21 1018.16 1018.16 1018.49 1019.09 1019.90 1020.20 1020.68 1020.86 1020.33 1019.62 1019.17 1017.88 1015.98 1016.06 1016.21 1015.90 1015.82
1022.75 1022.74 1022.73 1022.67 1022.59 1022.44 1022.20 1021.83 1021.51 1021.09 1021.10 1020.83 1020.52 1020.11 1019.64 1018.92 1018.76 1018.09 1017.91 1017.96 1018.21 1018.49 1018.77 1018.91 1018.68 1018.14 1018.29 1018.03 1018.06 1018.18 1018.37 1018.40 1018.51 1018.80 1019.19 1019.77 1020.58 1021.05 1020.92 1020.08 1018.80 1016.30 1015.45 1015.31 1015.54 1015.08 1014.65
1022.31 1022.37 1022.41 1022.51 1022.36 1022.04 1021.98 1021.90 1021.82 1021.47 1021.02 1020.78 1021.14 1020.98 1020.34 1019.44 1018.64 1018.24 1018.09 1018.19 1018.20 1018.34 1019.17 1019.13 1019.00 1019.59 1019.26 1018.72 1018.46 1018.21 1018.31 1018.69 1018.77 1019.42 1019.80 1020.05 1020.53 1021.04 1020.82 1019.99 1017.79 1015.55 1015.58 1015.48 1015.61 1014.90 1014.19
1022.08 1021.97 1022.00 1022.10 1022.19 1021.99 1021.57 1021.46 1021.73 1021.89 1021.45 1021.06 1020.83 1021.04 1021.04 1020.70 1019.27 1018.88 1018.54 1018.27 1018.27 1018.26 1018.65 1018.88 1019.58 1019.83 1019.88 1019.74 1019.33 1018.61 1018.00 1017.62 1018.85 1019.90 1020.54 1020.53 1020.60 1021.24 1020.76 1020.35 1018.32 1016.03 1015.60 1015.40 1015.63 1015.12 1014.47
1021.37 1021.66 1021.84 1021.80 1021.61 1021.78 1021.58 1021.17 1021.06 1021.49 1021.59 1021.51 1021.26 1020.98 1020.97 1020.67 1019.67 1019.84 1019.52 1018.76 1018.50 1018.52 1018.61 1019.04 1019.43 1019.93 1020.29 1020.22 1019.91 1019.41 1018.43 1017.88 1018.39 1018.95 1020.07 1020.77 1021.06 1020.57 1020.31 1019.49 1017.41 1015.49 1015.38 1015.57 1015.70 1015.94 1014.94
1021.01 1021.22 1021.59 1021.78 1021.62 1021.41 1021.52 1021.39 1021.31 1021.19 1021.31 1021.47 1021.29 1021.36 1021.23 1020.62 1019.91 1019.50 1019.47 1019.75 1019.52 1019.08 1018.93 1019.07 1019.43 1019.84 1020.47 1020.67 1020.40 1019.52 1018.76 1018.13 1018.38 1018.26 1018.67 1019.21 1019.63 1019.69 1019.64 1018.72 1016.95 1015.21 1015.48 1015.47 1015.15 1014.78 1014.71
1020.22 1020.72 1021.18 1021.34 1021.47 1021.50 1021.47 1021.35 1021.27 1021.19 1021.05 1021.48 1021.73 1021.45 1021.17 1021.29 1020.33 1019.73 1019.64 1019.58 1019.31 1019.26 1019.36 1018.93 1019.04 1019.15 1019.53 1020.17 1020.17 1019.95 1019.87 1019.35 1018.35 1018.04 1017.78 1018.10 1017.48 1017.65 1017.52 1016.26 1015.18 1014.95 1014.72 1014.56 1014.62 1014.59 1014.60
Wind_Speed
18 19 20 20 20 20 22 22 23 23 22 23 21 16 15 17 15 14 12 11 13 17 15 12 11 13 4 4 7 8 4 4 5 8 11 14 13 7 7 8 7 9 5 7 5 6 8
18 19 19 20 20 20 21 22 21 21 20 20 20 20 15 16 16 15 17 17 16 13 15 12 11 7 2 12 8 5 4 3 8 9 8 12 7 7 6 6 3 8 9 7 6 6 5
18 18 19 20 19 19 20 20 21 20 19 18 18 18 17 15 16 16 15 12 12 11 4 4 8 6 11 6 6 4 4 3 4 1 4 5 7 4 8 8 7 12 9 7 5 3 4
19 19 19 19 19 19 19 19 19 19 17 17 16 16 15 15 12 10 8 7 6 4 4 5 7 6 6 1 8 14 7 8 6 10 5 8 9 7 5 7 4 5 5 4 2 1 2
19 19 20 20 19 20 20 19 18 17 17 16 14 14 14 13 13 15 15 10 8 2 4 7 5 2 6 3 8 10 11 8 5 3 5 5 4 4 3 5 4 2 4 5 4 2 1
19 20 20 20 20 21 21 19 18 17 16 14 13 11 10 12 15 16 17 15 12 5 5 3 5 5 8 6 5 5 6 6 3 4 5 3 4 4 2 2 3 5 6 5 5 2 2
18 19 19 20 20 20 21 20 19 17 15 14 12 10 9 7 7 11 10 6 1 5 11 14 10 9 5 9 2 8 5 1 3 3 4 5 9 5 9 5 6 6 6 7 5 3 2
17 19 19 19 20 21 21 21 19 18 16 14 11 10 6 7 8 15 4 5 5 4 7 10 12 7 5 4 6 17 11 3 3 6 5 7 7 5 4 5 4 7 4 5 3 0 1
16 17 18 19 20 20 21 21 20 19 18 14 12 9 10 4 7 5 6 5 3 6 0 5 5 5 5 6 7 10 12 5 5 8 9 8 4 3 2 7 7 8 6 6 4 5 3
16 16 16 18 19 20 19 19 19 20 18 16 10 10 9 9 4 3 3 6 2 3 5 11 8 5 6 0 4 4 6 2 8 8 7 7 2 2 7 6 7 4 5 3 4 5 2
15 14 16 15 17 17 18 20 21 20 18 15 11 9 8 9 3 1 3 5 5 3 5 8 5 3 3 5 1 8 4 7 12 6 3 1 7 7 9 4 7 3 3 3 2 3 4
14 16 16 16 16 16 17 18 20 19 16 13 9 8 9 2 2 2 4 5 3 0 4 5 3 4 3 8 4 2 2 6 1 11 14 5 1 5 3 3 5 2 4 5 2 1 3
13 15 16 16 17 18 18 19 19 19 18 9 5 8 6 3 2 5 5 3 4 6 1 2 3 2 5 5 4 4 6 6 4 6 5 4 4 3 3 3 3 4 3 2 5 4 5
14 15 16 16 17 18 19 19 20 20 17 7 5 8 3 5 4 5 3 1 9 3 2 1 2 3 4 5 2 1 1 4 5 4 5 4 0 3 3 4 2 4 3 4 3 1 4
13 14 15 15 17 18 20 20 20 19 13 4 5 2 1 4 5 3 2 6 3 3 2 2 3 1 3 2 2 1 5 4 5 7 3 1 3 3 3 2 3 1 1 1 4 1 3
13 14 15 16 17 18 19 21 21 21 13 2 3 2 3 4 5 3 5 4 3 4 2 4 3 3 2 3 2 2 3 3 3 5 5 3 4 1 3 2 1 3 2 2 2 2 5
12 14 15 16 17 18 19 19 21 22 17 3 3 2 2 2 2 1 5 4 4 3 6 5 4 1 4 3 5 3 5 1 2 2 5 3 3 2 1 6 6 2 2 3 1 3 4
14 15 16 16 16 16 18 19 19 19 23 4 3 2 1 1 2 3 3 3 3 2 1 1 3 5 4 1 2 3 2 5 3 1 1 3 3 3 3 4 5 4 3 7 4 4 4
14 15 16 17 17 17 17 18 19 18 16 6 2 1 2 1 2 3 3 3 3 1 1 2 2 3 2 2 1 2 3 1 2 2 2 2 3 1 1 2 1 3 5 5 5 4 5
11 14 15 17 17 18 17 17 18 20 17 2 3 1 2 1 3 2 4 4 4 1 1 2 4 3 2 2 1 1 3 1 2 1 2 3 3 4 5 2 2 4 6 8 7 3 4
11 12 15 17 18 17 16 17 18 20 19 2 3 2 0 2 4 5 4 2 6 5 2 2 3 5 4 2 2 2 2 4 3 4 2 2 3 1 5 7 7 8 10 10 14 15 8
11 11 13 15 15 16 16 16 16 21 23 3 3 3 2 2 2 1 2 4 3 4 6 6 3 3 4 4 5 4 1 4 4 5 3 3 3 2 5 11 11 10 14 14 16 18 17
7 8 11 13 14 14 14 14 13 18 18 3 1 2 1 1 2 2 2 4 2 6 0 0 4 2 6 1 4 5 5 5 2 7 7 5 2 1 5 4 7 11 11 15 11 9 12
5 6 9 11 12 12 12 13 11 11 12 4 3 2 2 1 2 1 3 2 1 3 3 3 4 3 2 2 4 4 6 7 6 6 4 3 4 2 5 5 4 6 4 3 2 9 9
6 5 6 11 11 10 9 11 10 8 9 2 2 3 3 4 2 4 4 3 1 3 2 5 1 6 7 3 2 3 3 1 1 6 5 5 1 2 3 3 10 0 2 3 2 5 3
9 7 5 7 10 10 8 7 6 7 7 4 3 1 2 4 3 4 2 2 2 4 5 5 3 5 3 3 2 4 5 5 5 3 1 2 1 1 2 2 6 2 4 3 1 0 5
11 8 7 7 7 9 9 6 2 3 3 2 1 1 2 2 2 3 4 3 2 0 2 3 4 2 2 2 3 3 4 1 4 6 6 5 4 8 7 4 8 1 5 3 1 2 2
9 7 6 6 7 8 7 4 4 3 3 1 1 1 1 2 4 3 2 4 3 1 1 3 2 1 2 2 3 4 3 3 2 2 6 7 6 5 4 5 10 4 4 3 3 4 5
12 9 6 3 3 3 3 2 3 4 4 4 2 0 1 2 4 1 5 7 6 6 1 3 1 2 3 2 2 3 3 3 2 3 1 3 6 4 8 7 3 7 5 5 5 6 2
Wind_Direction
24 16 11 8 9 8 4 8 13 15 19 25 27 30 43 33 35 59 58 73 96 119 121 115 116 117 162 43 28 5 346 131 235 242 193 164 180 174 165 136 128 93 99 76 79 54 40
27 18 14 9 11 10 11 7 14 16 19 27 25 25 43 55 55 62 71 65 72 86 120 142 157 158 314 67 318 351 282 151 229 225 156 175 179 175 127 59 45 108 110 107 84 85 55
27 21 16 13 9 12 12 11 12 18 15 27 22 28 29 35 56 62 58 54 48 57 80 165 218 273 54 46 308 278 207 110 282 257 66 6 16 52 85 91 103 136 108 120 56 27 64
26 22 15 13 11 10 10 14 11 15 13 23 22 15 22 15 31 42 58 21 8 14 355 320 281 255 83 254 325 29 105 79 47 67 57 59 62 59 67 123 169 136 154 118 59 338 117
25 23 17 15 14 8 10 10 12 12 16 11 30 8 20 7 3 351 351 339 345 20 277 283 271 269 51 16 21 354 10 102 112 87 94 97 62 93 146 154 97 253 150 114 135 40 66
26 22 17 13 14 13 11 8 8 10 11 11 16 25 18 3 352 345 334 304 311 5 244 221 281 61 20 6 352 344 340 18 80 143 84 74 107 125 191 157 152 187 141 152 145 49 261
24 22 18 14 12 16 10 11 8 9 9 8 8 22 359 22 360 317 335 324 342 11 44 56 44 76 37 320 193 0 354 249 216 158 79 343 68 49 50 15 300 244 125 152 86 70 309
22 23 18 16 13 11 13 8 6 3 5 2 4 355 23 336 327 315 276 49 33 358 52 46 64 67 36 286 28 1 336 191 94 93 118 46 64 24 341 300 357 17 119 64 89 101 280
19 24 17 17 16 13 9 8 2 2 357 0 352 0 340 325 311 305 83 76 349 330 53 53 62 38 325 345 39 357 354 8 100 89 70 81 64 314 273 28 50 40 21 38 26 285 185
12 16 13 11 14 12 10 2 1 358 357 350 357 352 344 319 354 338 31 344 326 323 82 347 9 37 338 273 68 29 340 329 34 51 74 70 343 0 78 60 339 115 356 6 0 31 233
3 359 11 6 6 6 3 5 1 358 354 351 349 348 330 343 303 155 352 315 306 339 76 331 357 333 304 68 293 26 325 54 66 40 155 346 42 25 55 11 319 99 338 7 329 312 53
356 352 356 355 358 3 1 359 360 354 356 348 351 357 326 264 153 30 288 271 216 218 64 334 324 308 115 53 53 191 124 63 312 73 66 86 65 32 46 59 20 152 239 209 226 339 27
347 348 352 353 356 358 357 356 355 357 355 356 335 356 12 328 17 320 299 259 34 62 245 343 33 353 72 40 70 39 71 41 66 62 58 104 50 107 326 234 195 256 271 340 354 11 222
344 349 351 351 354 357 355 354 351 357 357 2 332 316 36 37 352 321 276 34 59 290 77 329 298 122 69 345 59 171 228 113 50 335 138 157 336 20 348 38 329 41 354 139 201 331 278
351 349 349 350 353 357 353 353 351 352 357 351 321 215 85 19 334 306 284 54 77 74 145 163 228 256 107 100 346 228 44 69 42 4 36 129 109 139 27 346 350 64 84 37 77 85 46
347 347 349 349 352 353 355 353 350 349 359 62 285 262 58 350 337 296 61 89 82 15 13 315 359 312 124 99 219 254 161 11 97 19 336 51 103 337 115 268 114 344 194 88 1 37 285
345 342 343 346 349 349 351 353 351 348 351 90 269 274 10 352 333 339 80 58 98 54 358 337 14 142 33 114 334 62 64 78 3 85 325 357 92 150 85 205 170 144 225 223 54 158 199
338 335 337 340 342 346 347 349 352 352 343 264 303 6 158 220 37 62 43 29 332 80 359 12 305 343 353 14 149 137 116 58 89 207 16 57 323 181 177 58 22 337 255 187 141 228 239
328 325 332 334 335 337 342 345 347 350 3 309 330 79 179 233 43 85 154 100 1 109 326 334 0 335 2 336 324 60 94 17 116 239 11 143 251 321 62 60 141 239 216 260 295 62 236
313 321 329 330 332 333 336 343 343 342 350 329 301 23 350 171 299 89 154 142 138 107 340 343 346 313 288 225 120 83 150 118 105 356 354 335 294 219 193 118 152 207 212 206 205 169 230
304 318 330 333 334 333 332 341 341 338 340 103 4 26 252 3 31 356 303 179 144 164 223 198 203 269 288 258 206 221 122 134 194 153 246 274 265 276 287 289 278 246 240 234 213 228 231
296 326 331 334 334 333 332 338 343 339 333 85 10 341 223 139 165 266 91 310 233 136 176 174 206 93 230 272 32 18 160 215 215 146 234 189 278 343 276 250 245 254 247 243 244 250 253
300 325 327 331 335 334 332 335 349 348 339 40 178 163 308 234 173 189 116 85 3 337 235 238 183 192 199 254 9 339 314 300 276 163 205 168 229 355 267 18 332 284 256 229 217 227 231
275 298 320 326 330 332 328 332 345 360 3 317 15 290 288 277 283 300 143 114 242 260 326 358 281 247 132 199 249 235 253 257 252 238 249 197 196 195 271 308 252 251 260 200 256 277 233
242 266 306 320 325 326 322 326 330 348 352 24 341 337 337 289 39 227 186 215 156 173 240 295 306 15 338 286 254 236 178 255 278 55 348 303 245 268 234 259 288 257 47 84 66 301 343
230 241 267 300 312 312 309 318 321 328 339 298 105 290 310 335 7 18 229 171 235 204 141 160 75 1 325 281 266 231 220 203 182 151 333 291 80 193 199 231 258 65 155 130 49 212 346
215 232 252 271 293 300 291 278 264 304 322 329 359 47 260 259 47 337 302 328 86 56 157 145 153 151 26 269 249 254 260 80 224 185 158 154 210 216 224 249 278 321 141 119 183 190 29
202 218 237 268 302 308 291 293 297 289 248 222 123 73 295 274 284 198 228 299 312 285 261 137 93 133 142 233 247 252 249 201 344 148 167 170 162 189 195 214 257 128 91 194 205 271 294
185 184 198 220 288 326 355 336 349 321 236 174 258 31 141 230 273 22 274 275 250 284 248 215 110 126 201 176 287 343 332 317 255 237 356 219 201 193 194 217 155 186 222 245 268 256 332